Back to catalog

STARLINK-36326

AliveCommunicationsVLEO
NORAD 68519·PAYLOAD·🇺🇸 United States

Launched Mar 30, 2026 from Cape Canaveral Space Force Station

Loading…

Next Passes (next 24 hours)

TLE

FreshSource: CelesTrak SupGP

Epoch: Sep 14, 2026, 16:11 UTC

1 68519C 26068M   26257.67479167  .00025129  00000+0  74296-3 0  2576
2 68519  53.1591 326.8799 0001281  79.1905 288.6301 15.34355775    16

Track STARLINK-36326 in real time with AllMySat

Download on the App Store